QPF
0.13 0.15 0.15 0.11 0.06 0.03 0.01 0.01 0.00 0.00 0.00 0.00 0.00 0.00 0.00 0.00 0.00 0.00 0.00 0.00 0.00 0.00 0.00 0.00 0.00 0.00 0.00 0.00 0.00 0.00 0.00 0.00 0.00 0.00 0.00 0.00 0.00 0.00 0.00 0.00 0.00 0.00 0.00 0.00
0.16 0.13 0.07 0.05 0.04 0.03 0.02 0.01 0.01 0.00 0.00 0.00 0.00 0.00 0.00 0.00 0.00 0.00 0.00 0.00 0.00 0.00 0.00 0.00 0.00 0.00 0.00 0.00 0.00 0.00 0.00 0.00 0.00 0.00 0.00 0.00 0.00 0.00 0.00 0.00 0.00 0.00 0.00 0.00
0.15 0.09 0.04 0.05 0.07 0.07 0.04 0.02 0.01 0.01 0.01 0.00 0.00 0.00 0.00 0.00 0.00 0.00 0.00 0.00 0.00 0.00 0.00 0.00 0.00 0.00 0.00 0.00 0.00 0.00 0.00 0.00 0.00 0.00 0.00 0.00 0.00 0.00 0.00 0.00 0.00 0.00 0.00 0.00
0.12 0.07 0.06 0.07 0.09 0.08 0.07 0.02 0.01 0.01 0.01 0.01 0.01 0.01 0.00 0.00 0.00 0.00 0.00 0.00 0.00 0.00 0.00 0.00 0.00 0.00 0.00 0.00 0.00 0.00 0.00 0.00 0.00 0.00 0.00 0.00 0.00 0.00 0.00 0.00 0.00 0.00 0.00 0.00
0.15 0.07 0.07 0.09 0.06 0.07 0.06 0.03 0.02 0.02 0.01 0.01 0.01 0.01 0.00 0.00 0.00 0.00 0.00 0.00 0.00 0.00 0.00 0.00 0.00 0.00 0.00 0.00 0.00 0.00 0.00 0.00 0.00 0.00 0.00 0.00 0.00 0.00 0.00 0.00 0.00 0.00 0.00 0.00
0.12 0.08 0.08 0.06 0.04 0.05 0.06 0.06 0.07 0.06 0.07 0.07 0.02 0.00 0.00 0.00 0.00 0.00 0.00 0.00 0.00 0.00 0.00 0.00 0.00 0.00 0.00 0.00 0.00 0.00 0.00 0.00 0.00 0.00 0.00 0.00 0.00 0.00 0.00 0.00 0.00 0.00 0.00 0.00
0.14 0.10 0.10 0.07 0.08 0.11 0.13 0.16 0.22 0.22 0.19 0.09 0.01 0.00 0.00 0.00 0.00 0.00 0.00 0.00 0.00 0.00 0.00 0.00 0.00 0.00 0.00 0.00 0.00 0.00 0.00 0.00 0.00 0.00 0.00 0.00 0.00 0.00 0.00 0.00 0.00 0.00 0.00 0.00
0.15 0.11 0.09 0.08 0.09 0.12 0.14 0.15 0.16 0.14 0.08 0.02 0.00 0.01 0.00 0.00 0.00 0.00 0.00 0.00 0.00 0.00 0.00 0.00 0.00 0.00 0.00 0.00 0.00 0.00 0.00 0.00 0.00 0.00 0.00 0.00 0.00 0.00 0.00 0.00 0.00 0.00 0.00 0.00
0.16 0.08 0.04 0.06 0.05 0.05 0.08 0.10 0.07 0.06 0.03 0.02 0.01 0.00 0.00 0.00 0.00 0.00 0.00 0.00 0.00 0.00 0.00 0.00 0.00 0.00 0.00 0.00 0.00 0.00 0.00 0.00 0.00 0.00 0.00 0.00 0.00 0.00 0.00 0.00 0.00 0.00 0.00 0.00
0.18 0.13 0.06 0.05 0.07 0.08 0.07 0.08 0.10 0.12 0.08 0.03 0.01 0.00 0.00 0.00 0.00 0.00 0.00 0.00 0.00 0.00 0.00 0.00 0.00 0.00 0.00 0.00 0.00 0.00 0.00 0.00 0.00 0.00 0.00 0.00 0.00 0.00 0.00 0.00 0.00 0.00 0.00 0.00
0.14 0.15 0.11 0.10 0.12 0.12 0.09 0.11 0.15 0.13 0.07 0.03 0.01 0.00 0.00 0.00 0.00 0.00 0.00 0.00 0.00 0.00 0.00 0.00 0.00 0.00 0.00 0.00 0.00 0.00 0.00 0.00 0.00 0.00 0.00 0.00 0.00 0.00 0.00 0.00 0.00 0.00 0.00 0.00
0.10 0.14 0.12 0.09 0.09 0.10 0.11 0.10 0.09 0.09 0.07 0.02 0.01 0.00 0.00 0.00 0.00 0.00 0.00 0.00 0.00 0.00 0.00 0.00 0.00 0.00 0.00 0.00 0.00 0.00 0.00 0.00 0.00 0.00 0.00 0.00 0.00 0.00 0.00 0.00 0.00 0.00 0.00 0.00
0.12 0.14 0.14 0.12 0.13 0.16 0.18 0.17 0.12 0.07 0.05 0.03 0.01 0.00 0.00 0.00 0.00 0.00 0.00 0.00 0.00 0.00 0.00 0.00 0.00 0.00 0.00 0.00 0.00 0.00 0.00 0.00 0.00 0.00 0.00 0.00 0.00 0.00 0.00 0.00 0.00 0.00 0.00 0.00
0.14 0.14 0.12 0.13 0.13 0.15 0.16 0.13 0.13 0.12 0.09 0.04 0.01 0.00 0.00 0.00 0.00 0.00 0.00 0.00 0.00 0.00 0.00 0.00 0.00 0.00 0.00 0.00 0.00 0.00 0.00 0.00 0.00 0.00 0.00 0.00 0.00 0.00 0.00 0.00 0.00 0.00 0.00 0.00
0.14 0.12 0.08 0.05 0.04 0.04 0.05 0.05 0.06 0.08 0.06 0.03 0.01 0.00 0.00 0.00 0.00 0.00 0.00 0.00 0.00 0.00 0.00 0.00 0.00 0.00 0.00 0.00 0.00 0.00 0.00 0.00 0.00 0.00 0.00 0.00 0.00 0.00 0.00 0.00 0.00 0.00 0.00 0.00
0.16 0.12 0.06 0.03 0.02 0.02 0.03 0.03 0.03 0.03 0.02 0.01 0.00 0.00 0.00 0.00 0.00 0.00 0.00 0.00 0.00 0.00 0.00 0.00 0.00 0.00 0.00 0.00 0.00 0.00 0.00 0.00 0.00 0.00 0.00 0.00 0.00 0.00 0.00 0.00 0.00 0.00 0.00 0.00
0.16 0.15 0.09 0.05 0.02 0.04 0.04 0.02 0.02 0.02 0.01 0.00 0.00 0.00 0.00 0.00 0.00 0.00 0.00 0.00 0.00 0.00 0.00 0.00 0.00 0.00 0.00 0.00 0.00 0.00 0.00 0.00 0.00 0.00 0.00 0.00 0.00 0.00 0.00 0.00 0.00 0.00 0.00 0.00
0.07 0.11 0.12 0.07 0.06 0.08 0.03 0.01 0.01 0.01 0.01 0.01 0.01 0.01 0.00 0.00 0.00 0.00 0.00 0.00 0.00 0.00 0.00 0.00 0.00 0.00 0.00 0.00 0.00 0.00 0.00 0.00 0.00 0.00 0.00 0.00 0.00 0.00 0.00 0.00 0.00 0.00 0.00 0.00
0.03 0.07 0.12 0.11 0.08 0.04 0.01 0.01 0.01 0.01 0.02 0.02 0.01 0.01 0.01 0.00 0.00 0.00 0.00 0.00 0.00 0.00 0.00 0.00 0.00 0.00 0.00 0.00 0.00 0.00 0.00 0.00 0.00 0.00 0.00 0.00 0.00 0.00 0.00 0.00 0.00 0.00 0.00 0.00
0.03 0.06 0.12 0.11 0.08 0.03 0.01 0.01 0.01 0.01 0.03 0.02 0.01 0.01 0.01 0.01 0.00 0.00 0.00 0.00 0.00 0.00 0.00 0.00 0.00 0.00 0.00 0.00 0.00 0.00 0.00 0.00 0.00 0.00 0.00 0.00 0.00 0.00 0.00 0.00 0.00 0.00 0.00 0.00
0.08 0.12 0.13 0.09 0.06 0.02 0.01 0.01 0.02 0.04 0.05 0.03 0.01 0.01 0.01 0.01 0.00 0.00 0.00 0.00 0.00 0.00 0.00 0.00 0.00 0.00 0.00 0.00 0.00 0.00 0.00 0.00 0.00 0.00 0.00 0.00 0.00 0.00 0.00 0.00 0.00 0.00 0.00 0.00
0.07 0.08 0.08 0.06 0.05 0.02 0.01 0.03 0.05 0.05 0.03 0.02 0.01 0.01 0.01 0.01 0.00 0.00 0.00 0.00 0.00 0.00 0.00 0.00 0.00 0.00 0.00 0.00 0.00 0.00 0.00 0.00 0.00 0.00 0.00 0.00 0.00 0.00 0.00 0.00 0.00 0.00 0.00 0.00
0.06 0.06 0.06 0.05 0.03 0.01 0.01 0.02 0.03 0.02 0.01 0.01 0.01 0.00 0.00 0.00 0.00 0.00 0.00 0.00 0.00 0.00 0.00 0.00 0.00 0.00 0.00 0.00 0.00 0.00 0.00 0.00 0.00 0.00 0.00 0.00 0.00 0.00 0.00 0.00 0.00 0.00 0.00 0.00
0.04 0.04 0.05 0.04 0.01 0.01 0.01 0.01 0.01 0.01 0.01 0.01 0.01 0.00 0.00 0.00 0.00 0.00 0.00 0.00 0.00 0.00 0.00 0.00 0.00 0.00 0.00 0.00 0.00 0.00 0.00 0.00 0.00 0.00 0.00 0.00 0.00 0.00 0.00 0.00 0.00 0.00 0.00 0.00
0.03 0.03 0.03 0.03 0.02 0.01 0.01 0.01 0.01 0.01 0.01 0.01 0.01 0.00 0.00 0.00 0.00 0.00 0.00 0.00 0.00 0.00 0.00 0.00 0.00 0.00 0.00 0.00 0.00 0.00 0.00 0.00 0.00 0.00 0.00 0.00 0.00 0.00 0.00 0.00 0.00 0.00 0.00 0.00
0.01 0.02 0.02 0.03 0.03 0.02 0.01 0.01 0.01 0.01 0.01 0.01 0.01 0.01 0.00 0.00 0.00 0.00 0.00 0.00 0.00 0.00 0.00 0.00 0.00 0.00 0.00 0.00 0.00 0.00 0.00 0.00 0.00 0.00 0.00 0.00 0.00 0.00 0.00 0.00 0.00 0.00 0.00 0.00
MSLP
1008.85 1008.39 1008.02 1007.76 1007.60 1007.53 1007.51 1007.50 1007.45 1007.33 1007.11 1006.77 1006.33 1005.82 1005.29 1004.80 1004.40 1004.14 1004.03 1004.10 1004.32 1004.67 1005.11 1005.63 1006.18 1006.76 1007.36 1007.98 1008.64 1009.34 1010.08 1010.84 1011.62 1012.38 1013.11 1013.79 1014.41 1014.96 1015.47 1015.93 1016.37 1016.80 1017.23 1017.67
1007.93 1007.38 1006.95 1006.70 1006.60 1006.66 1006.81 1007.01 1007.16 1007.22 1007.12 1006.85 1006.41 1005.84 1005.21 1004.59 1004.05 1003.65 1003.44 1003.43 1003.60 1003.93 1004.37 1004.88 1005.44 1006.01 1006.59 1007.19 1007.83 1008.50 1009.22 1009.99 1010.77 1011.55 1012.31 1013.03 1013.68 1014.27 1014.81 1015.30 1015.78 1016.24 1016.71 1017.19
1007.10 1006.43 1005.94 1005.66 1005.60 1005.75 1006.05 1006.42 1006.75 1006.97 1007.00 1006.80 1006.38 1005.77 1005.06 1004.32 1003.66 1003.14 1002.83 1002.73 1002.83 1003.11 1003.53 1004.02 1004.56 1005.11 1005.67 1006.25 1006.87 1007.52 1008.24 1009.00 1009.80 1010.61 1011.40 1012.15 1012.85 1013.47 1014.04 1014.56 1015.05 1015.55 1016.04 1016.55
1006.44 1005.64 1005.04 1004.70 1004.63 1004.82 1005.20 1005.68 1006.15 1006.49 1006.63 1006.50 1006.11 1005.49 1004.73 1003.92 1003.17 1002.56 1002.15 1001.97 1002.01 1002.23 1002.60 1003.06 1003.56 1004.08 1004.62 1005.18 1005.77 1006.42 1007.14 1007.92 1008.74 1009.59 1010.42 1011.21 1011.94 1012.59 1013.18 1013.72 1014.23 1014.74 1015.25 1015.79
1006.03 1005.09 1004.35 1003.89 1003.75 1003.91 1004.30 1004.82 1005.35 1005.76 1005.96 1005.88 1005.52 1004.92 1004.15 1003.31 1002.52 1001.85 1001.39 1001.15 1001.14 1001.31 1001.63 1002.04 1002.50 1002.98 1003.48 1004.01 1004.59 1005.23 1005.96 1006.76 1007.61 1008.50 1009.37 1010.21 1010.98 1011.67 1012.28 1012.83 1013.35 1013.86 1014.39 1014.93
1005.90 1004.80 1003.91 1003.31 1003.04 1003.09 1003.40 1003.88 1004.39 1004.80 1005.01 1004.96 1004.62 1004.05 1003.30 1002.47 1001.68 1001.02 1000.55 1000.30 1000.26 1000.40 1000.68 1001.05 1001.46 1001.89 1002.35 1002.85 1003.40 1004.03 1004.76 1005.57 1006.46 1007.38 1008.30 1009.19 1010.00 1010.73 1011.37 1011.95 1012.48 1012.99 1013.51 1014.07
1006.05 1004.82 1003.77 1003.01 1002.58 1002.47 1002.64 1002.99 1003.39 1003.72 1003.88 1003.80 1003.47 1002.91 1002.20 1001.43 1000.69 1000.09 999.66 999.44 999.42 999.56 999.82 1000.15 1000.52 1000.91 1001.32 1001.77 1002.28 1002.89 1003.60 1004.42 1005.32 1006.28 1007.24 1008.17 1009.04 1009.81 1010.50 1011.10 1011.65 1012.17 1012.70 1013.25
1006.47 1005.14 1003.97 1003.06 1002.46 1002.16 1002.14 1002.29 1002.51 1002.68 1002.71 1002.54 1002.17 1001.61 1000.94 1000.24 999.60 999.08 998.75 998.61 998.64 998.82 999.10 999.42 999.76 1000.11 1000.47 1000.86 1001.33 1001.89 1002.57 1003.37 1004.27 1005.24 1006.23 1007.21 1008.12 1008.95 1009.68 1010.33 1010.91 1011.46 1011.99 1012.55
1007.11 1005.74 1004.51 1003.48 1002.73 1002.24 1001.99 1001.90 1001.87 1001.81 1001.65 1001.33 1000.87 1000.28 999.63 999.00 998.45 998.06 997.85 997.83 997.96 998.21 998.53 998.88 999.22 999.54 999.86 1000.20 1000.61 1001.11 1001.74 1002.49 1003.36 1004.32 1005.32 1006.31 1007.27 1008.15 1008.94 1009.64 1010.27 1010.86 1011.42 1011.99
1007.90 1006.58 1005.34 1004.26 1003.39 1002.73 1002.24 1001.88 1001.56 1001.22 1000.80 1000.29 999.68 999.02 998.36 997.78 997.33 997.06 996.99 997.10 997.36 997.72 998.12 998.51 998.88 999.20 999.49 999.80 1000.15 1000.59 1001.15 1001.84 1002.65 1003.56 1004.54 1005.54 1006.51 1007.44 1008.28 1009.05 1009.74 1010.38 1010.98 1011.57
1008.76 1007.55 1006.38 1005.31 1004.36 1003.55 1002.85 1002.22 1001.59 1000.94 1000.24 999.47 998.68 997.91 997.20 996.65 996.27 996.12 996.18 996.43 996.82 997.30 997.80 998.27 998.69 999.04 999.34 999.63 999.94 1000.33 1000.82 1001.43 1002.17 1003.02 1003.95 1004.91 1005.89 1006.83 1007.71 1008.54 1009.29 1009.99 1010.64 1011.26
1009.59 1008.53 1007.48 1006.46 1005.49 1004.56 1003.67 1002.78 1001.86 1000.90 999.90 998.88 997.89 996.98 996.21 995.65 995.32 995.25 995.42 995.78 996.30 996.89 997.49 998.06 998.55 998.97 999.31 999.62 999.93 1000.28 1000.72 1001.26 1001.92 1002.69 1003.55 1004.46 1005.40 1006.33 1007.24 1008.10 1008.90 1009.65 1010.35 1011.02
1010.27 1009.39 1008.48 1007.53 1006.56 1005.56 1004.51 1003.39 1002.21 1000.98 999.71 998.47 997.29 996.25 995.41 994.82 994.52 994.49 994.72 995.17 995.77 996.44 997.14 997.80 998.39 998.88 999.30 999.67 1000.01 1000.37 1000.79 1001.29 1001.88 1002.57 1003.34 1004.18 1005.06 1005.96 1006.86 1007.73 1008.56 1009.35 1010.10 1010.80
1010.72 1010.01 1009.22 1008.35 1007.39 1006.32 1005.15 1003.87 1002.49 1001.05 999.59 998.17 996.86 995.72 994.83 994.21 993.90 993.89 994.14 994.61 995.24 995.96 996.71 997.43 998.10 998.69 999.21 999.67 1000.09 1000.51 1000.95 1001.44 1002.00 1002.62 1003.32 1004.07 1004.88 1005.72 1006.57 1007.43 1008.26 1009.07 1009.85 1010.58
1010.88 1010.29 1009.59 1008.77 1007.81 1006.71 1005.46 1004.07 1002.58 1001.02 999.45 997.96 996.59 995.42 994.51 993.88 993.56 993.52 993.74 994.17 994.76 995.46 996.20 996.95 997.67 998.35 998.97 999.55 1000.09 1000.61 1001.12 1001.65 1002.21 1002.80 1003.43 1004.11 1004.83 1005.59 1006.38 1007.19 1008.01 1008.82 1009.60 1010.35
1010.73 1010.19 1009.53 1008.73 1007.77 1006.65 1005.37 1003.95 1002.43 1000.86 999.31 997.85 996.53 995.40 994.52 993.91 993.57 993.48 993.61 993.94 994.42 995.01 995.68 996.39 997.12 997.85 998.57 999.27 999.94 1000.59 1001.22 1001.83 1002.43 1003.02 1003.62 1004.24 1004.89 1005.57 1006.28 1007.03 1007.81 1008.59 1009.38 1010.14
1010.27 1009.72 1009.06 1008.25 1007.29 1006.17 1004.91 1003.53 1002.09 1000.63 999.21 997.89 996.72 995.72 994.93 994.36 994.00 993.84 993.85 994.01 994.30 994.71 995.22 995.82 996.50 997.23 998.01 998.82 999.63 1000.44 1001.20 1001.93 1002.61 1003.24 1003.84 1004.43 1005.01 1005.63 1006.27 1006.95 1007.68 1008.43 1009.19 1009.94
1009.55 1008.97 1008.26 1007.43 1006.47 1005.38 1004.20 1002.95 1001.67 1000.42 999.24 998.17 997.22 996.42 995.77 995.27 994.90 994.63 994.48 994.42 994.47 994.63 994.91 995.33 995.89 996.57 997.37 998.25 999.19 1000.13 1001.05 1001.91 1002.69 1003.39 1004.03 1004.61 1005.17 1005.73 1006.32 1006.95 1007.62 1008.33 1009.07 1009.81
1008.68 1008.02 1007.27 1006.42 1005.48 1004.47 1003.41 1002.35 1001.32 1000.35 999.47 998.71 998.04 997.48 997.00 996.57 996.18 995.81 995.47 995.16 994.92 994.79 994.79 994.98 995.36 995.95 996.72 997.63 998.65 999.72 1000.77 1001.76 1002.66 1003.45 1004.14 1004.75 1005.31 1005.86 1006.41 1007.00 1007.64 1008.33 1009.04 1009.77
1007.71 1007.00 1006.22 1005.37 1004.48 1003.58 1002.70 1001.86 1001.11 1000.46 999.92 999.48 999.11 998.79 998.48 998.12 997.71 997.23 996.68 996.12 995.58 995.14 994.85 994.79 994.97 995.42 996.12 997.03 998.10 999.25 1000.41 1001.51 1002.52 1003.41 1004.17 1004.83 1005.42 1005.97 1006.53 1007.11 1007.74 1008.41 1009.12 1009.84
1006.73 1005.98 1005.20 1004.39 1003.59 1002.83 1002.14 1001.55 1001.08 1000.74 1000.52 1000.38 1000.28 1000.17 999.99 999.69 999.25 998.65 997.93 997.12 996.32 995.59 995.03 994.72 994.71 995.01 995.63 996.50 997.58 998.78 1000.01 1001.21 1002.31 1003.28 1004.12 1004.85 1005.49 1006.08 1006.66 1007.26 1007.91 1008.59 1009.31 1010.04
1005.74 1005.01 1004.26 1003.53 1002.84 1002.24 1001.75 1001.39 1001.18 1001.10 1001.14 1001.24 1001.34 1001.39 1001.30 1001.03 1000.54 999.85 998.97 997.98 996.95 996.00 995.23 994.72 994.55 994.72 995.25 996.07 997.14 998.35 999.63 1000.88 1002.05 1003.10 1004.02 1004.81 1005.52 1006.17 1006.80 1007.46 1008.14 1008.86 1009.61 1010.35
1004.76 1004.07 1003.40 1002.77 1002.21 1001.76 1001.45 1001.28 1001.27 1001.38 1001.60 1001.85 1002.08 1002.21 1002.17 1001.89 1001.37 1000.60 999.61 998.50 997.34 996.25 995.34 994.71 994.43 994.51 994.97 995.75 996.80 998.01 999.30 1000.59 1001.80 1002.91 1003.89 1004.75 1005.53 1006.26 1006.97 1007.69 1008.44 1009.22 1010.01 1010.79
1003.76 1003.14 1002.56 1002.04 1001.61 1001.30 1001.13 1001.10 1001.21 1001.44 1001.74 1002.06 1002.33 1002.48 1002.43 1002.14 1001.58 1000.76 999.74 998.57 997.37 996.24 995.29 994.62 994.30 994.35 994.78 995.53 996.55 997.75 999.04 1000.34 1001.58 1002.73 1003.77 1004.71 1005.56 1006.38 1007.17 1007.98 1008.80 1009.65 1010.50 1011.32
1002.70 1002.16 1001.68 1001.27 1000.96 1000.76 1000.68 1000.73 1000.90 1001.16 1001.47 1001.77 1002.01 1002.12 1002.04 1001.72 1001.15 1000.33 999.33 998.19 997.04 995.95 995.05 994.43 994.14 994.21 994.63 995.38 996.39 997.57 998.86 1000.16 1001.42 1002.60 1003.69 1004.70 1005.63 1006.53 1007.42 1008.32 1009.23 1010.15 1011.05 1011.92
1001.57 1001.11 1000.72 1000.41 1000.18 1000.06 1000.03 1000.11 1000.27 1000.50 1000.76 1001.00 1001.17 1001.22 1001.09 1000.75 1000.19 999.42 998.48 997.45 996.41 995.45 994.67 994.15 993.94 994.07 994.53 995.29 996.29 997.47 998.75 1000.05 1001.32 1002.54 1003.68 1004.75 1005.77 1006.75 1007.73 1008.71 1009.70 1010.69 1011.66 1012.57
Thickness
5550 5555 5571 5588 5598 5610 5619 5624 5630 5643 5651 5647 5654 5665 5679 5687 5688 5696 5705 5711 5715 5719 5725 5726 5725 5724 5721 5718 5716 5714 5710 5706 5701 5697 5693 5689 5685 5682 5678 5673 5669 5664 5659 5654
5536 5551 5578 5586 5590 5594 5602 5609 5620 5630 5637 5638 5646 5656 5672 5681 5687 5694 5702 5708 5714 5718 5721 5721 5722 5721 5721 5719 5717 5714 5711 5708 5704 5700 5696 5691 5686 5680 5676 5670 5665 5661 5656 5651
5535 5560 5570 5571 5574 5579 5590 5601 5612 5618 5623 5626 5631 5643 5662 5678 5684 5691 5699 5707 5715 5718 5721 5722 5720 5720 5720 5719 5718 5716 5714 5710 5705 5699 5692 5686 5680 5675 5671 5667 5663 5658 5653 5648
5531 5549 5555 5561 5569 5576 5582 5599 5604 5606 5607 5614 5621 5631 5662 5674 5677 5686 5696 5704 5711 5716 5719 5722 5722 5721 5720 5720 5719 5716 5713 5709 5704 5697 5691 5686 5682 5679 5675 5669 5663 5656 5651 5645
5527 5540 5544 5554 5569 5575 5583 5591 5593 5596 5600 5604 5614 5619 5654 5669 5673 5688 5699 5706 5711 5715 5717 5719 5720 5720 5720 5719 5716 5714 5712 5708 5703 5697 5692 5686 5682 5679 5674 5667 5660 5654 5648 5642
5523 5533 5540 5553 5565 5569 5573 5576 5576 5580 5582 5584 5612 5614 5642 5667 5680 5692 5700 5706 5709 5712 5713 5715 5716 5716 5715 5714 5712 5710 5708 5705 5701 5695 5690 5685 5681 5676 5671 5665 5658 5652 5646 5639
5513 5525 5536 5547 5548 5552 5559 5558 5557 5562 5568 5590 5616 5614 5641 5675 5685 5691 5697 5702 5706 5707 5708 5709 5710 5711 5711 5709 5708 5707 5705 5702 5698 5693 5688 5684 5679 5674 5669 5663 5657 5650 5644 5638
5503 5517 5529 5538 5546 5549 5556 5560 5568 5576 5586 5602 5603 5612 5649 5672 5680 5684 5689 5694 5697 5701 5704 5705 5707 5708 5707 5706 5705 5704 5702 5700 5696 5691 5686 5681 5676 5670 5665 5660 5655 5649 5643 5637
5497 5516 5530 5535 5544 5549 5549 5555 5571 5576 5591 5596 5604 5623 5643 5658 5667 5673 5680 5685 5690 5695 5698 5700 5701 5702 5702 5702 5702 5701 5699 5696 5692 5688 5683 5678 5672 5667 5662 5656 5651 5646 5640 5634
5486 5499 5520 5529 5533 5543 5553 5556 5553 5555 5570 5586 5604 5618 5640 5656 5665 5671 5675 5681 5687 5689 5691 5693 5694 5695 5696 5697 5696 5695 5694 5691 5688 5683 5678 5673 5668 5663 5657 5652 5647 5642 5636 5630
5479 5489 5507 5517 5525 5537 5542 5543 5546 5556 5573 5590 5603 5627 5656 5665 5671 5674 5678 5682 5684 5685 5686 5687 5688 5689 5688 5688 5687 5687 5686 5684 5680 5677 5673 5667 5663 5658 5652 5647 5642 5637 5631 5625
5473 5482 5495 5513 5529 5532 5539 5546 5547 5555 5566 5584 5603 5629 5653 5659 5666 5670 5674 5675 5677 5678 5679 5680 5680 5679 5679 5679 5680 5679 5679 5677 5674 5671 5667 5662 5657 5652 5647 5642 5637 5631 5625 5619
5464 5471 5486 5504 5508 5510 5516 5527 5538 5551 5567 5578 5591 5621 5643 5648 5653 5658 5663 5667 5668 5669 5670 5671 5671 5671 5672 5672 5672 5672 5671 5670 5667 5663 5660 5655 5650 5646 5641 5636 5630 5625 5619 5613
5458 5463 5476 5491 5501 5502 5506 5516 5526 5536 5553 5573 5594 5617 5631 5638 5644 5650 5654 5658 5662 5662 5662 5664 5665 5666 5666 5666 5665 5665 5664 5662 5659 5656 5652 5648 5644 5639 5634 5629 5623 5618 5612 5606
5446 5459 5472 5486 5496 5503 5510 5518 5523 5531 5553 5572 5598 5609 5623 5633 5639 5645 5647 5649 5651 5653 5654 5656 5659 5660 5659 5658 5657 5657 5656 5653 5651 5648 5644 5640 5636 5631 5626 5620 5615 5609 5604 5598
5432 5446 5463 5477 5492 5499 5508 5522 5528 5536 5552 5570 5586 5601 5619 5623 5628 5632 5637 5640 5643 5648 5649 5650 5652 5653 5653 5653 5652 5650 5648 5646 5644 5641 5637 5632 5627 5622 5617 5612 5606 5601 5595 5589
5426 5433 5448 5470 5485 5489 5504 5530 5538 5547 5561 5572 5581 5600 5605 5609 5616 5625 5630 5634 5638 5642 5644 5645 5647 5648 5650 5650 5648 5645 5643 5639 5636 5633 5629 5624 5620 5614 5609 5603 5598 5593 5587 5581
5421 5427 5438 5456 5470 5479 5525 5539 5542 5548 5558 5568 5578 5585 5593 5602 5614 5621 5626 5630 5633 5637 5639 5641 5643 5644 5645 5644 5642 5639 5636 5633 5629 5626 5621 5617 5612 5607 5601 5596 5591 5585 5580 5574
5425 5424 5433 5449 5466 5492 5520 5529 5535 5540 5549 5557 5566 5573 5582 5592 5602 5612 5619 5624 5630 5634 5637 5641 5642 5642 5640 5638 5636 5632 5629 5626 5622 5619 5615 5610 5606 5600 5594 5589 5583 5577 5572 5565
5425 5422 5427 5444 5459 5487 5522 5530 5534 5535 5541 5552 5558 5565 5571 5578 5587 5608 5613 5617 5624 5629 5632 5633 5635 5635 5634 5633 5630 5627 5625 5621 5618 5614 5609 5604 5599 5594 5588 5582 5575 5569 5563 5556
5419 5417 5424 5440 5457 5489 5513 5518 5525 5525 5540 5548 5553 5560 5564 5572 5588 5602 5607 5612 5617 5622 5626 5627 5627 5629 5630 5629 5626 5624 5621 5618 5614 5607 5601 5596 5591 5586 5581 5574 5567 5560 5553 5545
5425 5430 5434 5442 5450 5479 5503 5506 5514 5522 5532 5539 5548 5555 5562 5573 5584 5591 5597 5603 5609 5615 5618 5620 5621 5623 5623 5623 5623 5621 5617 5613 5605 5599 5593 5588 5583 5576 5571 5565 5557 5551 5544 5537
5426 5436 5445 5453 5471 5490 5493 5498 5506 5513 5521 5531 5540 5550 5558 5567 5576 5584 5591 5598 5603 5608 5613 5615 5617 5616 5616 5617 5618 5617 5611 5604 5598 5592 5586 5580 5573 5567 5562 5556 5549 5542 5536 5529
5420 5426 5433 5445 5465 5478 5484 5490 5497 5504 5512 5522 5530 5541 5551 5560 5569 5578 5585 5591 5597 5602 5606 5609 5610 5609 5610 5611 5611 5610 5603 5597 5592 5586 5578 5571 5564 5557 5551 5545 5540 5534 5528 5521
5416 5417 5425 5439 5457 5466 5478 5484 5491 5498 5506 5514 5523 5533 5544 5554 5563 5571 5578 5586 5592 5596 5600 5603 5605 5607 5606 5604 5603 5599 5595 5591 5585 5577 5569 5562 5555 5549 5541 5534 5529 5524 5519 5514
5415 5418 5423 5439 5454 5456 5469 5479 5484 5490 5499 5508 5517 5527 5538 5547 5557 5565 5573 5580 5585 5590 5593 5596 5599 5600 5598 5596 5593 5590 5588 5585 5579 5570 5561 5554 5547 5540 5533 5525 5515 5507 5504 5498